Time,TemperatureF,DewpointF,PressureIn,WindDirection,WindDirectionDegrees,WindSpeedMPH,WindSpeedGustMPH,Humidity,HourlyPrecipIn,Conditions,Clouds,dailyrainin,SoftwareType,DateUTC
2013-03-06 00:03:00,64.9,62.2,30.08,SSW,203,5.0,-999.0,91,0.00,,,0.08,Wunderground v.1.15,2013-03-06 05:03:00,
2013-03-06 00:08:00,64.9,62.2,30.08,SSW,203,5.0,-999.0,91,0.00,,,0.08,Wunderground v.1.15,2013-03-06 05:08:00,
2013-03-06 00:13:00,64.9,62.2,30.08,SSW,203,5.0,-999.0,91,0.00,,,0.08,Wunderground v.1.15,2013-03-06 05:13:00,
2013-03-06 00:18:00,65.1,62.4,30.08,SSW,203,6.0,-999.0,91,0.00,,,0.08,Wunderground v.1.15,2013-03-06 05:18:00,
2013-03-06 00:23:00,65.1,62.4,30.08,SSW,203,6.0,-999.0,91,0.00,,,0.08,Wunderground v.1.15,2013-03-06 05:23:00,
2013-03-06 00:28:00,65.2,62.5,30.08,SSW,203,6.0,-999.0,91,0.00,,,0.08,Wunderground v.1.15,2013-03-06 05:28:00,
2013-03-06 00:33:00,65.2,62.5,30.08,SSW,203,6.0,-999.0,91,0.00,,,0.08,Wunderground v.1.15,2013-03-06 05:33:00,
2013-03-06 00:38:00,65.4,62.7,30.08,SSW,203,6.0,-999.0,91,0.00,,,0.08,Wunderground v.1.15,2013-03-06 05:38:00,
2013-03-06 00:43:00,65.4,62.7,30.08,SSW,203,6.0,-999.0,91,0.00,,,0.08,Wunderground v.1.15,2013-03-06 05:43:00,
2013-03-06 00:48:00,65.5,62.8,30.07,SSW,203,6.0,-999.0,91,0.00,,,0.08,Wunderground v.1.15,2013-03-06 05:48:00,
2013-03-06 00:53:00,65.5,62.8,30.07,SSW,203,6.0,-999.0,91,0.00,,,0.08,Wunderground v.1.15,2013-03-06 05:53:00,
2013-03-06 00:58:00,65.6,62.9,30.07,SSW,203,5.0,-999.0,91,0.00,,,0.08,Wunderground v.1.15,2013-03-06 05:58:00,
2013-03-06 01:03:00,65.6,62.9,30.07,SSW,203,5.0,-999.0,91,0.00,,,0.08,Wunderground v.1.15,2013-03-06 06:03:00,
2013-03-06 01:08:00,65.6,62.6,30.07,SW,225,7.0,-999.0,90,0.00,,,0.08,Wunderground v.1.15,2013-03-06 06:08:00,
2013-03-06 01:13:00,65.6,62.6,30.07,SW,225,7.0,-999.0,90,0.00,,,0.08,Wunderground v.1.15,2013-03-06 06:13:00,
2013-03-06 01:18:00,65.7,62.7,30.06,SSW,203,6.0,-999.0,90,0.00,,,0.08,Wunderground v.1.15,2013-03-06 06:18:00,
2013-03-06 01:23:00,65.7,62.7,30.06,SSW,203,6.0,-999.0,90,0.00,,,0.08,Wunderground v.1.15,2013-03-06 06:23:00,
2013-03-06 01:28:00,65.8,62.8,30.06,SW,225,6.0,-999.0,90,0.00,,,0.08,Wunderground v.1.15,2013-03-06 06:28:00,
2013-03-06 01:33:00,65.8,62.8,30.06,SW,225,6.0,-999.0,90,0.00,,,0.08,Wunderground v.1.15,2013-03-06 06:33:00,
2013-03-06 01:38:00,65.8,62.8,30.06,SSW,203,6.0,-999.0,90,0.00,,,0.08,Wunderground v.1.15,2013-03-06 06:38:00,
2013-03-06 01:43:00,65.8,62.8,30.06,SSW,203,6.0,-999.0,90,0.00,,,0.08,Wunderground v.1.15,2013-03-06 06:43:00,
2013-03-06 01:48:00,65.8,62.8,30.05,SSW,203,7.0,-999.0,90,0.00,,,0.08,Wunderground v.1.15,2013-03-06 06:48:00,
2013-03-06 01:53:00,65.8,62.8,30.05,SSW,203,7.0,-999.0,90,0.00,,,0.08,Wunderground v.1.15,2013-03-06 06:53:00,
2013-03-06 01:58:00,65.7,62.7,30.05,SSW,203,6.0,-999.0,90,0.00,,,0.08,Wunderground v.1.15,2013-03-06 06:58:00,
2013-03-06 02:03:00,65.7,62.7,30.05,SSW,203,6.0,-999.0,90,0.00,,,0.08,Wunderground v.1.15,2013-03-06 07:03:00,
2013-03-06 02:08:00,65.5,62.8,30.04,SSW,203,7.0,-999.0,91,0.00,,,0.08,Wunderground v.1.15,2013-03-06 07:08:00,
2013-03-06 02:13:00,65.5,62.8,30.04,SSW,203,7.0,-999.0,91,0.00,,,0.08,Wunderground v.1.15,2013-03-06 07:13:00,
2013-03-06 02:18:00,65.4,62.7,30.04,SSW,203,6.0,-999.0,91,0.00,,,0.08,Wunderground v.1.15,2013-03-06 07:18:00,
2013-03-06 02:23:00,65.4,62.7,30.04,SSW,203,6.0,-999.0,91,0.00,,,0.08,Wunderground v.1.15,2013-03-06 07:23:00,
2013-03-06 02:28:00,65.4,62.7,30.04,SSW,203,7.0,-999.0,91,0.00,,,0.08,Wunderground v.1.15,2013-03-06 07:28:00,
2013-03-06 02:33:00,65.4,62.7,30.04,SSW,203,7.0,-999.0,91,0.00,,,0.08,Wunderground v.1.15,2013-03-06 07:33:00,
2013-03-06 02:38:00,65.4,62.7,30.03,SSW,203,7.0,-999.0,91,0.00,,,0.08,Wunderground v.1.15,2013-03-06 07:38:00,
2013-03-06 02:43:00,65.4,62.7,30.03,SSW,203,7.0,-999.0,91,0.00,,,0.08,Wunderground v.1.15,2013-03-06 07:43:00,
2013-03-06 02:48:00,65.4,62.7,30.03,SSW,203,7.0,-999.0,91,0.00,,,0.08,Wunderground v.1.15,2013-03-06 07:48:00,
2013-03-06 02:53:00,65.4,62.7,30.03,SSW,203,7.0,-999.0,91,0.00,,,0.08,Wunderground v.1.15,2013-03-06 07:53:00,
2013-03-06 02:58:00,65.4,62.7,30.03,SW,225,7.0,-999.0,91,0.00,,,0.08,Wunderground v.1.15,2013-03-06 07:58:00,
2013-03-06 03:03:00,65.4,62.7,30.03,SW,225,7.0,-999.0,91,0.00,,,0.08,Wunderground v.1.15,2013-03-06 08:03:00,
2013-03-06 03:08:00,65.5,62.8,30.03,SW,225,7.0,-999.0,91,0.00,,,0.08,Wunderground v.1.15,2013-03-06 08:08:00,
2013-03-06 03:13:00,65.5,62.8,30.03,SW,225,7.0,-999.0,91,0.00,,,0.08,Wunderground v.1.15,2013-03-06 08:13:00,
2013-03-06 03:18:00,65.6,62.9,30.02,SSW,203,8.0,-999.0,91,0.00,,,0.08,Wunderground v.1.15,2013-03-06 08:18:00,
2013-03-06 03:23:00,65.6,62.9,30.02,SSW,203,8.0,-999.0,91,0.00,,,0.08,Wunderground v.1.15,2013-03-06 08:23:00,
2013-03-06 03:28:00,65.8,62.8,30.02,SSW,203,8.0,-999.0,90,0.00,,,0.08,Wunderground v.1.15,2013-03-06 08:28:00,
2013-03-06 03:33:00,65.8,62.8,30.02,SSW,203,8.0,-999.0,90,0.00,,,0.08,Wunderground v.1.15,2013-03-06 08:33:00,
2013-03-06 03:38:00,66.0,63.0,30.02,SW,225,8.0,-999.0,90,0.00,,,0.08,Wunderground v.1.15,2013-03-06 08:38:00,
2013-03-06 03:43:00,66.0,63.0,30.02,SW,225,8.0,-999.0,90,0.00,,,0.08,Wunderground v.1.15,2013-03-06 08:43:00,
2013-03-06 03:48:00,66.0,63.0,30.02,SSW,203,7.0,-999.0,90,0.00,,,0.08,Wunderground v.1.15,2013-03-06 08:48:00,
2013-03-06 03:53:00,66.0,63.0,30.02,SSW,203,7.0,-999.0,90,0.00,,,0.08,Wunderground v.1.15,2013-03-06 08:53:00,
2013-03-06 03:58:00,65.9,62.9,30.01,SW,225,7.0,-999.0,90,0.00,,,0.08,Wunderground v.1.15,2013-03-06 08:58:00,
2013-03-06 04:03:00,65.9,62.9,30.01,SW,225,7.0,-999.0,90,0.00,,,0.08,Wunderground v.1.15,2013-03-06 09:03:00,
2013-03-06 04:08:00,65.9,62.9,30.01,SW,225,8.0,-999.0,90,0.00,,,0.08,Wunderground v.1.15,2013-03-06 09:08:00,
2013-03-06 04:13:00,65.9,62.9,30.01,SW,225,8.0,-999.0,90,0.00,,,0.08,Wunderground v.1.15,2013-03-06 09:13:00,
2013-03-06 04:18:00,66.0,63.0,30.01,SSW,203,8.0,-999.0,90,0.00,,,0.08,Wunderground v.1.15,2013-03-06 09:18:00,
2013-03-06 04:23:00,66.0,63.0,30.01,SSW,203,8.0,-999.0,90,0.00,,,0.08,Wunderground v.1.15,2013-03-06 09:23:00,
2013-03-06 04:28:00,66.1,63.1,30.01,SW,225,8.0,-999.0,90,0.00,,,0.08,Wunderground v.1.15,2013-03-06 09:28:00,
2013-03-06 04:33:00,66.1,63.1,30.01,SW,225,8.0,-999.0,90,0.00,,,0.08,Wunderground v.1.15,2013-03-06 09:33:00,
2013-03-06 04:38:00,66.2,63.2,30.01,SW,225,9.0,-999.0,90,0.00,,,0.08,Wunderground v.1.15,2013-03-06 09:38:00,
2013-03-06 04:43:00,66.2,63.2,30.01,SW,225,9.0,-999.0,90,0.00,,,0.08,Wunderground v.1.15,2013-03-06 09:43:00,
2013-03-06 04:48:00,66.3,63.3,30.01,SW,225,7.0,-999.0,90,0.00,,,0.08,Wunderground v.1.15,2013-03-06 09:48:00,
2013-03-06 04:53:00,66.3,63.3,30.01,SW,225,7.0,-999.0,90,0.00,,,0.08,Wunderground v.1.15,2013-03-06 09:53:00,
2013-03-06 04:58:00,66.5,63.5,30.01,SW,225,8.0,-999.0,90,0.00,,,0.08,Wunderground v.1.15,2013-03-06 09:58:00,
2013-03-06 05:03:00,66.5,63.5,30.01,SW,225,8.0,-999.0,90,0.00,,,0.08,Wunderground v.1.15,2013-03-06 10:03:00,
2013-03-06 05:08:00,66.5,63.8,30.01,SW,225,8.0,-999.0,91,0.00,,,0.08,Wunderground v.1.15,2013-03-06 10:08:00,
2013-03-06 05:13:00,66.5,63.8,30.01,SW,225,8.0,-999.0,91,0.00,,,0.08,Wunderground v.1.15,2013-03-06 10:13:00,
2013-03-06 05:18:00,66.4,64.0,30.02,SW,225,5.0,-999.0,92,0.00,,,0.08,Wunderground v.1.15,2013-03-06 10:18:00,
2013-03-06 05:23:00,66.4,64.0,30.02,SW,225,5.0,-999.0,92,0.00,,,0.08,Wunderground v.1.15,2013-03-06 10:23:00,
2013-03-06 05:28:00,66.3,63.9,30.02,SW,225,6.0,-999.0,92,0.00,,,0.08,Wunderground v.1.15,2013-03-06 10:28:00,
2013-03-06 05:33:00,66.3,63.9,30.02,SW,225,6.0,-999.0,92,0.00,,,0.08,Wunderground v.1.15,2013-03-06 10:33:00,
2013-03-06 05:38:00,66.2,63.5,30.03,WNW,293,6.0,-999.0,91,0.07,,,0.08,Wunderground v.1.15,2013-03-06 10:38:00,
2013-03-06 05:43:00,66.2,63.5,30.03,WNW,293,6.0,-999.0,91,0.07,,,0.08,Wunderground v.1.15,2013-03-06 10:43:00,
2013-03-06 05:48:00,65.7,63.3,30.02,WSW,248,7.0,-999.0,92,0.08,,,0.08,Wunderground v.1.15,2013-03-06 10:48:00,
2013-03-06 05:53:00,65.7,63.3,30.02,WSW,248,7.0,-999.0,92,0.08,,,0.08,Wunderground v.1.15,2013-03-06 10:53:00,
2013-03-06 05:58:00,66.3,64.2,30.03,WSW,248,7.0,-999.0,93,0.08,,,0.08,Wunderground v.1.15,2013-03-06 10:58:00,
2013-03-06 06:03:00,66.3,64.2,30.03,WSW,248,7.0,-999.0,93,0.08,,,0.08,Wunderground v.1.15,2013-03-06 11:03:00,
2013-03-06 06:08:00,66.2,64.4,30.03,WSW,248,6.0,-999.0,94,0.08,,,0.08,Wunderground v.1.15,2013-03-06 11:08:00,
2013-03-06 06:13:00,66.2,64.4,30.03,WSW,248,6.0,-999.0,94,0.08,,,0.08,Wunderground v.1.15,2013-03-06 11:13:00,
2013-03-06 06:18:00,65.2,62.2,30.06,WNW,293,9.0,-999.0,90,0.08,,,0.08,Wunderground v.1.15,2013-03-06 11:18:00,
2013-03-06 06:23:00,65.2,62.2,30.06,WNW,293,9.0,-999.0,90,0.08,,,0.08,Wunderground v.1.15,2013-03-06 11:23:00,
2013-03-06 06:28:00,61.9,59.5,30.06,NW,315,10.0,-999.0,92,0.08,,,0.08,Wunderground v.1.15,2013-03-06 11:28:00,
2013-03-06 06:33:00,61.9,59.5,30.06,NW,315,10.0,-999.0,92,0.08,,,0.08,Wunderground v.1.15,2013-03-06 11:33:00,
2013-03-06 06:38:00,61.0,58.4,30.07,NW,315,11.0,-999.0,91,0.01,,,0.08,Wunderground v.1.15,2013-03-06 11:38:00,
2013-03-06 06:43:00,61.0,58.4,30.07,NW,315,11.0,-999.0,91,0.01,,,0.08,Wunderground v.1.15,2013-03-06 11:43:00,
2013-03-06 06:48:00,60.6,58.0,30.07,NW,315,10.0,-999.0,91,0.00,,,0.08,Wunderground v.1.15,2013-03-06 11:48:00,
2013-03-06 06:53:00,60.6,58.0,30.07,NW,315,10.0,-999.0,91,0.00,,,0.08,Wunderground v.1.15,2013-03-06 11:53:00,
2013-03-06 06:58:00,60.2,57.3,30.07,NW,315,8.0,-999.0,90,0.00,,,0.08,Wunderground v.1.15,2013-03-06 11:58:00,
2013-03-06 07:03:00,60.2,57.3,30.07,NW,315,8.0,-999.0,90,0.00,,,0.08,Wunderground v.1.15,2013-03-06 12:03:00,
2013-03-06 07:08:00,59.5,55.9,30.07,NW,315,11.0,-999.0,88,0.00,,,0.08,Wunderground v.1.15,2013-03-06 12:08:00,
2013-03-06 07:13:00,59.5,55.9,30.07,NW,315,11.0,-999.0,88,0.00,,,0.08,Wunderground v.1.15,2013-03-06 12:13:00,
2013-03-06 07:18:00,59.0,55.1,30.09,NW,315,9.0,-999.0,87,0.00,,,0.08,Wunderground v.1.15,2013-03-06 12:18:00,
2013-03-06 07:23:00,59.0,55.1,30.09,NW,315,9.0,-999.0,87,0.00,,,0.08,Wunderground v.1.15,2013-03-06 12:23:00,
2013-03-06 07:28:00,58.3,53.2,30.10,NNW,338,10.0,-999.0,83,0.00,,,0.08,Wunderground v.1.15,2013-03-06 12:28:00,
2013-03-06 07:33:00,58.3,53.2,30.10,NNW,338,10.0,-999.0,83,0.00,,,0.08,Wunderground v.1.15,2013-03-06 12:33:00,
2013-03-06 07:38:00,57.7,51.2,30.10,NW,315,11.0,-999.0,79,0.00,,,0.08,Wunderground v.1.15,2013-03-06 12:38:00,
2013-03-06 07:43:00,57.7,51.2,30.10,NW,315,11.0,-999.0,79,0.00,,,0.08,Wunderground v.1.15,2013-03-06 12:43:00,
2013-03-06 07:48:00,57.3,50.5,30.11,NW,315,10.0,-999.0,78,0.00,,,0.08,Wunderground v.1.15,2013-03-06 12:48:00,
2013-03-06 07:53:00,57.3,50.5,30.11,NW,315,10.0,-999.0,78,0.00,,,0.08,Wunderground v.1.15,2013-03-06 12:53:00,
2013-03-06 07:58:00,57.2,50.1,30.12,NNW,338,9.0,-999.0,77,0.00,,,0.08,Wunderground v.1.15,2013-03-06 12:58:00,
2013-03-06 08:03:00,57.2,50.1,30.12,NNW,338,9.0,-999.0,77,0.00,,,0.08,Wunderground v.1.15,2013-03-06 13:03:00,
2013-03-06 08:08:00,56.9,48.0,30.13,NW,315,10.0,-999.0,72,0.00,,,0.08,Wunderground v.1.15,2013-03-06 13:08:00,
2013-03-06 08:13:00,56.9,48.0,30.13,NW,315,10.0,-999.0,72,0.00,,,0.08,Wunderground v.1.15,2013-03-06 13:13:00,
2013-03-06 08:18:00,56.8,48.2,30.13,NNW,338,8.0,-999.0,73,0.00,,,0.08,Wunderground v.1.15,2013-03-06 13:18:00,
2013-03-06 08:23:00,56.8,48.2,30.13,NNW,338,8.0,-999.0,73,0.00,,,0.08,Wunderground v.1.15,2013-03-06 13:23:00,
2013-03-06 08:28:00,56.8,47.5,30.13,NW,315,9.0,-999.0,71,0.00,,,0.08,Wunderground v.1.15,2013-03-06 13:28:00,
2013-03-06 08:33:00,56.8,47.5,30.13,NW,315,9.0,-999.0,71,0.00,,,0.08,Wunderground v.1.15,2013-03-06 13:33:00,
2013-03-06 08:38:00,56.6,46.5,30.14,NW,315,8.0,-999.0,69,0.00,,,0.08,Wunderground v.1.15,2013-03-06 13:38:00,
2013-03-06 08:43:00,56.6,46.5,30.14,NW,315,8.0,-999.0,69,0.00,,,0.08,Wunderground v.1.15,2013-03-06 13:43:00,
2013-03-06 08:48:00,56.9,46.4,30.14,NW,315,10.0,-999.0,68,0.00,,,0.08,Wunderground v.1.15,2013-03-06 13:48:00,
2013-03-06 08:53:00,56.9,46.4,30.14,NW,315,10.0,-999.0,68,0.00,,,0.08,Wunderground v.1.15,2013-03-06 13:53:00,
2013-03-06 08:58:00,57.1,47.0,30.15,NNW,338,8.0,-999.0,69,0.00,,,0.08,Wunderground v.1.15,2013-03-06 13:58:00,
2013-03-06 09:03:00,57.1,47.0,30.15,NNW,338,8.0,-999.0,69,0.00,,,0.08,Wunderground v.1.15,2013-03-06 14:03:00,
2013-03-06 09:08:00,57.4,46.5,30.15,NNW,338,10.0,-999.0,67,0.00,,,0.08,Wunderground v.1.15,2013-03-06 14:08:00,
2013-03-06 09:13:00,57.4,46.5,30.15,NNW,338,10.0,-999.0,67,0.00,,,0.08,Wunderground v.1.15,2013-03-06 14:13:00,
2013-03-06 09:18:00,57.0,45.7,30.15,NW,315,10.0,-999.0,66,0.00,,,0.08,Wunderground v.1.15,2013-03-06 14:18:00,
2013-03-06 09:23:00,57.0,45.7,30.15,NW,315,10.0,-999.0,66,0.00,,,0.08,Wunderground v.1.15,2013-03-06 14:23:00,
2013-03-06 09:28:00,57.0,45.7,30.15,NW,315,10.0,-999.0,66,0.00,,,0.08,Wunderground v.1.15,2013-03-06 14:28:00,
2013-03-06 09:33:00,57.0,45.7,30.15,NW,315,10.0,-999.0,66,0.00,,,0.08,Wunderground v.1.15,2013-03-06 14:33:00,
2013-03-06 09:38:00,57.0,45.3,30.15,NNW,338,12.0,-999.0,65,0.00,,,0.08,Wunderground v.1.15,2013-03-06 14:38:00,
2013-03-06 09:43:00,57.0,45.3,30.15,NNW,338,12.0,-999.0,65,0.00,,,0.08,Wunderground v.1.15,2013-03-06 14:43:00,
2013-03-06 09:48:00,57.2,45.5,30.16,NW,315,9.0,-999.0,65,0.00,,,0.08,Wunderground v.1.15,2013-03-06 14:48:00,
2013-03-06 09:53:00,57.2,45.5,30.16,NW,315,9.0,-999.0,65,0.00,,,0.08,Wunderground v.1.15,2013-03-06 14:53:00,
2013-03-06 09:58:00,57.6,45.5,30.16,NW,315,8.0,-999.0,64,0.00,,,0.08,Wunderground v.1.15,2013-03-06 14:58:00,
2013-03-06 10:03:00,57.6,45.5,30.16,NW,315,8.0,-999.0,64,0.00,,,0.08,Wunderground v.1.15,2013-03-06 15:03:00,
2013-03-06 10:08:00,58.1,46.0,30.16,NW,315,8.0,-999.0,64,0.00,,,0.08,Wunderground v.1.15,2013-03-06 15:08:00,
2013-03-06 10:13:00,58.1,46.0,30.16,NW,315,8.0,-999.0,64,0.00,,,0.08,Wunderground v.1.15,2013-03-06 15:13:00,
2013-03-06 10:18:00,58.2,46.9,30.17,NW,315,9.0,-999.0,66,0.00,,,0.08,Wunderground v.1.15,2013-03-06 15:18:00,
2013-03-06 10:23:00,58.2,46.9,30.17,NW,315,9.0,-999.0,66,0.00,,,0.08,Wunderground v.1.15,2013-03-06 15:23:00,
2013-03-06 10:28:00,58.6,46.5,30.17,NW,315,9.0,-999.0,64,0.00,,,0.08,Wunderground v.1.15,2013-03-06 15:28:00,
2013-03-06 10:33:00,58.6,46.5,30.17,NW,315,9.0,-999.0,64,0.00,,,0.08,Wunderground v.1.15,2013-03-06 15:33:00,
2013-03-06 10:38:00,58.7,46.5,30.17,NW,315,9.0,-999.0,64,0.00,,,0.08,Wunderground v.1.15,2013-03-06 15:38:00,
2013-03-06 10:43:00,58.7,46.5,30.17,NW,315,9.0,-999.0,64,0.00,,,0.08,Wunderground v.1.15,2013-03-06 15:43:00,
2013-03-06 10:48:00,58.9,46.3,30.17,NW,315,11.0,-999.0,63,0.00,,,0.08,Wunderground v.1.15,2013-03-06 15:48:00,
2013-03-06 10:53:00,58.9,46.3,30.17,NW,315,11.0,-999.0,63,0.00,,,0.08,Wunderground v.1.15,2013-03-06 15:53:00,
2013-03-06 10:58:00,59.2,47.0,30.17,NW,315,9.0,-999.0,64,0.00,,,0.08,Wunderground v.1.15,2013-03-06 15:58:00,
2013-03-06 11:03:00,59.2,47.0,30.17,NW,315,9.0,-999.0,64,0.00,,,0.08,Wunderground v.1.15,2013-03-06 16:03:00,
2013-03-06 11:08:00,59.3,47.1,30.17,NW,315,10.0,-999.0,64,0.00,,,0.08,Wunderground v.1.15,2013-03-06 16:08:00,
2013-03-06 11:13:00,59.3,47.1,30.17,NW,315,10.0,-999.0,64,0.00,,,0.08,Wunderground v.1.15,2013-03-06 16:13:00,
2013-03-06 11:18:00,59.3,47.9,30.16,NW,315,11.0,-999.0,66,0.00,,,0.08,Wunderground v.1.15,2013-03-06 16:18:00,
2013-03-06 11:23:00,59.3,47.9,30.16,NW,315,11.0,-999.0,66,0.00,,,0.08,Wunderground v.1.15,2013-03-06 16:23:00,
2013-03-06 11:28:00,59.4,47.2,30.16,NW,315,10.0,-999.0,64,0.00,,,0.08,Wunderground v.1.15,2013-03-06 16:28:00,
2013-03-06 11:33:00,59.4,47.2,30.16,NW,315,10.0,-999.0,64,0.00,,,0.08,Wunderground v.1.15,2013-03-06 16:33:00,
2013-03-06 11:38:00,59.7,46.7,30.16,WNW,293,11.0,-999.0,62,0.00,,,0.08,Wunderground v.1.15,2013-03-06 16:38:00,
2013-03-06 11:43:00,59.7,46.7,30.16,WNW,293,11.0,-999.0,62,0.00,,,0.08,Wunderground v.1.15,2013-03-06 16:43:00,
2013-03-06 11:48:00,59.7,46.7,30.15,NW,315,9.0,-999.0,62,0.00,,,0.08,Wunderground v.1.15,2013-03-06 16:48:00,
2013-03-06 11:53:00,59.7,46.7,30.15,NW,315,9.0,-999.0,62,0.00,,,0.08,Wunderground v.1.15,2013-03-06 16:53:00,
2013-03-06 11:58:00,60.0,46.1,30.15,NW,315,10.0,-999.0,60,0.00,,,0.08,Wunderground v.1.15,2013-03-06 16:58:00,
2013-03-06 12:03:00,60.0,46.1,30.15,NW,315,10.0,-999.0,60,0.00,,,0.08,Wunderground v.1.15,2013-03-06 17:03:00,
2013-03-06 12:08:00,59.7,46.7,30.14,NW,315,10.0,-999.0,62,0.00,,,0.08,Wunderground v.1.15,2013-03-06 17:08:00,
2013-03-06 12:13:00,59.7,46.7,30.14,NW,315,10.0,-999.0,62,0.00,,,0.08,Wunderground v.1.15,2013-03-06 17:13:00,
2013-03-06 12:18:00,59.6,45.7,30.14,NW,315,11.0,-999.0,60,0.00,,,0.08,Wunderground v.1.15,2013-03-06 17:18:00,
2013-03-06 12:23:00,59.6,45.7,30.14,NW,315,11.0,-999.0,60,0.00,,,0.08,Wunderground v.1.15,2013-03-06 17:23:00,
2013-03-06 12:28:00,59.5,45.6,30.14,NW,315,10.0,-999.0,60,0.00,,,0.08,Wunderground v.1.15,2013-03-06 17:28:00,
2013-03-06 12:33:00,59.5,45.6,30.14,NW,315,10.0,-999.0,60,0.00,,,0.08,Wunderground v.1.15,2013-03-06 17:33:00,
2013-03-06 12:38:00,59.5,44.7,30.14,NW,315,11.0,-999.0,58,0.00,,,0.08,Wunderground v.1.15,2013-03-06 17:38:00,
2013-03-06 12:43:00,59.5,44.7,30.14,NW,315,11.0,-999.0,58,0.00,,,0.08,Wunderground v.1.15,2013-03-06 17:43:00,
2013-03-06 12:48:00,60.1,43.4,30.13,NW,315,10.0,-999.0,54,0.00,,,0.08,Wunderground v.1.15,2013-03-06 17:48:00,
2013-03-06 12:53:00,60.1,43.4,30.13,NW,315,10.0,-999.0,54,0.00,,,0.08,Wunderground v.1.15,2013-03-06 17:53:00,
2013-03-06 12:58:00,59.8,44.5,30.13,NW,315,11.0,-999.0,57,0.00,,,0.08,Wunderground v.1.15,2013-03-06 17:58:00,
2013-03-06 13:03:00,59.8,44.5,30.13,NW,315,11.0,-999.0,57,0.00,,,0.08,Wunderground v.1.15,2013-03-06 18:03:00,
2013-03-06 13:08:00,59.7,44.0,30.13,NW,315,11.0,-999.0,56,0.00,,,0.08,Wunderground v.1.15,2013-03-06 18:08:00,
2013-03-06 13:13:00,59.7,44.0,30.13,NW,315,11.0,-999.0,56,0.00,,,0.08,Wunderground v.1.15,2013-03-06 18:13:00,
2013-03-06 13:18:00,60.2,44.0,30.13,WNW,293,9.0,-999.0,55,0.00,,,0.08,Wunderground v.1.15,2013-03-06 18:18:00,
2013-03-06 13:23:00,60.2,44.0,30.13,WNW,293,9.0,-999.0,55,0.00,,,0.08,Wunderground v.1.15,2013-03-06 18:23:00,
2013-03-06 13:28:00,60.3,43.1,30.13,WNW,293,10.0,-999.0,53,0.00,,,0.08,Wunderground v.1.15,2013-03-06 18:28:00,
2013-03-06 13:33:00,60.3,43.1,30.13,WNW,293,10.0,-999.0,53,0.00,,,0.08,Wunderground v.1.15,2013-03-06 18:33:00,
2013-03-06 13:38:00,60.0,42.8,30.12,NW,315,10.0,-999.0,53,0.00,,,0.08,Wunderground v.1.15,2013-03-06 18:38:00,
2013-03-06 13:43:00,60.0,42.8,30.12,NW,315,10.0,-999.0,53,0.00,,,0.08,Wunderground v.1.15,2013-03-06 18:43:00,
2013-03-06 13:48:00,60.5,44.2,30.11,NW,315,10.0,-999.0,55,0.00,,,0.08,Wunderground v.1.15,2013-03-06 18:48:00,
2013-03-06 13:53:00,60.5,44.2,30.11,NW,315,10.0,-999.0,55,0.00,,,0.08,Wunderground v.1.15,2013-03-06 18:53:00,
2013-03-06 13:58:00,60.5,45.6,30.11,NW,315,10.0,-999.0,58,0.00,,,0.08,Wunderground v.1.15,2013-03-06 18:58:00,
2013-03-06 14:03:00,60.5,45.6,30.11,NW,315,10.0,-999.0,58,0.00,,,0.08,Wunderground v.1.15,2013-03-06 19:03:00,
2013-03-06 14:08:00,60.7,44.9,30.11,WNW,293,10.0,-999.0,56,0.00,,,0.08,Wunderground v.1.15,2013-03-06 19:08:00,
2013-03-06 14:13:00,60.7,44.9,30.11,WNW,293,10.0,-999.0,56,0.00,,,0.08,Wunderground v.1.15,2013-03-06 19:13:00,
2013-03-06 14:18:00,60.2,44.9,30.11,NW,315,11.0,-999.0,57,0.00,,,0.08,Wunderground v.1.15,2013-03-06 19:18:00,
2013-03-06 14:23:00,60.2,44.9,30.11,NW,315,11.0,-999.0,57,0.00,,,0.08,Wunderground v.1.15,2013-03-06 19:23:00,
2013-03-06 14:28:00,60.3,45.0,30.10,WNW,293,9.0,-999.0,57,0.00,,,0.08,Wunderground v.1.15,2013-03-06 19:28:00,
2013-03-06 14:33:00,60.3,45.0,30.10,WNW,293,9.0,-999.0,57,0.00,,,0.08,Wunderground v.1.15,2013-03-06 19:33:00,
2013-03-06 14:38:00,60.4,45.5,30.10,WNW,293,10.0,-999.0,58,0.00,,,0.08,Wunderground v.1.15,2013-03-06 19:38:00,
2013-03-06 14:43:00,60.4,45.5,30.10,WNW,293,10.0,-999.0,58,0.00,,,0.08,Wunderground v.1.15,2013-03-06 19:43:00,
2013-03-06 14:48:00,60.1,45.3,30.10,WNW,293,11.0,-999.0,58,0.00,,,0.08,Wunderground v.1.15,2013-03-06 19:48:00,
2013-03-06 14:53:00,60.1,45.3,30.10,WNW,293,11.0,-999.0,58,0.00,,,0.08,Wunderground v.1.15,2013-03-06 19:53:00,
2013-03-06 14:58:00,59.9,45.5,30.10,NW,315,11.0,-999.0,59,0.00,,,0.08,Wunderground v.1.15,2013-03-06 19:58:00,
2013-03-06 15:03:00,59.9,45.5,30.10,NW,315,11.0,-999.0,59,0.00,,,0.08,Wunderground v.1.15,2013-03-06 20:03:00,
2013-03-06 15:08:00,60.1,44.8,30.10,WNW,293,9.0,-999.0,57,0.00,,,0.08,Wunderground v.1.15,2013-03-06 20:08:00,
2013-03-06 15:13:00,60.1,44.8,30.10,WNW,293,9.0,-999.0,57,0.00,,,0.08,Wunderground v.1.15,2013-03-06 20:13:00,
2013-03-06 15:18:00,60.6,44.8,30.10,WNW,293,9.0,-999.0,56,0.00,,,0.08,Wunderground v.1.15,2013-03-06 20:18:00,
2013-03-06 15:23:00,60.6,44.8,30.10,WNW,293,9.0,-999.0,56,0.00,,,0.08,Wunderground v.1.15,2013-03-06 20:23:00,
2013-03-06 15:28:00,60.2,45.8,30.09,NW,315,9.0,-999.0,59,0.00,,,0.08,Wunderground v.1.15,2013-03-06 20:28:00,
2013-03-06 15:33:00,60.2,45.8,30.09,NW,315,9.0,-999.0,59,0.00,,,0.08,Wunderground v.1.15,2013-03-06 20:33:00,
2013-03-06 15:38:00,60.0,45.6,30.10,NW,315,10.0,-999.0,59,0.00,,,0.08,Wunderground v.1.15,2013-03-06 20:38:00,
2013-03-06 15:43:00,60.0,45.6,30.10,NW,315,10.0,-999.0,59,0.00,,,0.08,Wunderground v.1.15,2013-03-06 20:43:00,
2013-03-06 15:48:00,60.0,44.7,30.10,NW,315,9.0,-999.0,57,0.00,,,0.08,Wunderground v.1.15,2013-03-06 20:48:00,
2013-03-06 15:53:00,60.0,44.7,30.10,NW,315,9.0,-999.0,57,0.00,,,0.08,Wunderground v.1.15,2013-03-06 20:53:00,
2013-03-06 15:58:00,59.7,45.3,30.10,NW,315,10.0,-999.0,59,0.00,,,0.08,Wunderground v.1.15,2013-03-06 20:58:00,
2013-03-06 16:03:00,59.7,45.3,30.10,NW,315,10.0,-999.0,59,0.00,,,0.08,Wunderground v.1.15,2013-03-06 21:03:00,
2013-03-06 16:08:00,59.2,45.3,30.10,NW,315,11.0,-999.0,60,0.00,,,0.08,Wunderground v.1.15,2013-03-06 21:08:00,
2013-03-06 16:13:00,59.2,45.3,30.10,NW,315,11.0,-999.0,60,0.00,,,0.08,Wunderground v.1.15,2013-03-06 21:13:00,
2013-03-06 16:18:00,58.8,45.4,30.10,WNW,293,11.0,-999.0,61,0.00,,,0.08,Wunderground v.1.15,2013-03-06 21:18:00,
2013-03-06 16:23:00,58.8,45.4,30.10,WNW,293,11.0,-999.0,61,0.00,,,0.08,Wunderground v.1.15,2013-03-06 21:23:00,
2013-03-06 16:28:00,58.7,45.3,30.10,WNW,293,10.0,-999.0,61,0.00,,,0.08,Wunderground v.1.15,2013-03-06 21:28:00,
2013-03-06 16:33:00,58.7,45.3,30.10,WNW,293,10.0,-999.0,61,0.00,,,0.08,Wunderground v.1.15,2013-03-06 21:33:00,
2013-03-06 16:38:00,58.7,44.8,30.10,WNW,293,11.0,-999.0,60,0.00,,,0.08,Wunderground v.1.15,2013-03-06 21:38:00,
2013-03-06 16:43:00,58.7,44.8,30.10,WNW,293,11.0,-999.0,60,0.00,,,0.08,Wunderground v.1.15,2013-03-06 21:43:00,
2013-03-06 16:48:00,58.3,45.3,30.10,WNW,293,10.0,-999.0,62,0.00,,,0.08,Wunderground v.1.15,2013-03-06 21:48:00,
2013-03-06 16:53:00,58.3,45.3,30.10,WNW,293,10.0,-999.0,62,0.00,,,0.08,Wunderground v.1.15,2013-03-06 21:53:00,
2013-03-06 16:58:00,58.4,45.4,30.09,WNW,293,10.0,-999.0,62,0.00,,,0.08,Wunderground v.1.15,2013-03-06 21:58:00,
2013-03-06 17:03:00,58.4,45.4,30.09,WNW,293,10.0,-999.0,62,0.00,,,0.08,Wunderground v.1.15,2013-03-06 22:03:00,
2013-03-06 17:08:00,58.2,45.7,30.10,NW,315,9.0,-999.0,63,0.00,,,0.08,Wunderground v.1.15,2013-03-06 22:08:00,
2013-03-06 17:13:00,58.2,45.7,30.10,NW,315,9.0,-999.0,63,0.00,,,0.08,Wunderground v.1.15,2013-03-06 22:13:00,
2013-03-06 17:18:00,58.1,46.0,30.10,WNW,293,9.0,-999.0,64,0.00,,,0.08,Wunderground v.1.15,2013-03-06 22:18:00,
2013-03-06 17:23:00,58.1,46.0,30.10,WNW,293,9.0,-999.0,64,0.00,,,0.08,Wunderground v.1.15,2013-03-06 22:23:00,
2013-03-06 17:28:00,57.9,45.4,30.10,WNW,293,9.0,-999.0,63,0.00,,,0.08,Wunderground v.1.15,2013-03-06 22:28:00,
2013-03-06 17:33:00,57.9,45.4,30.10,WNW,293,9.0,-999.0,63,0.00,,,0.08,Wunderground v.1.15,2013-03-06 22:33:00,
2013-03-06 17:38:00,57.9,44.5,30.10,WNW,293,8.0,-999.0,61,0.00,,,0.08,Wunderground v.1.15,2013-03-06 22:38:00,
2013-03-06 17:43:00,57.9,44.5,30.10,WNW,293,8.0,-999.0,61,0.00,,,0.08,Wunderground v.1.15,2013-03-06 22:43:00,
2013-03-06 17:48:00,57.7,44.3,30.10,NW,315,8.0,-999.0,61,0.00,,,0.08,Wunderground v.1.15,2013-03-06 22:48:00,
2013-03-06 17:53:00,57.7,44.3,30.10,NW,315,8.0,-999.0,61,0.00,,,0.08,Wunderground v.1.15,2013-03-06 22:53:00,
2013-03-06 17:58:00,57.7,45.2,30.11,WNW,293,7.0,-999.0,63,0.00,,,0.08,Wunderground v.1.15,2013-03-06 22:58:00,
2013-03-06 18:03:00,57.7,45.2,30.11,WNW,293,7.0,-999.0,63,0.00,,,0.08,Wunderground v.1.15,2013-03-06 23:03:00,
2013-03-06 18:08:00,57.4,44.1,30.11,WNW,293,8.0,-999.0,61,0.00,,,0.08,Wunderground v.1.15,2013-03-06 23:08:00,
2013-03-06 18:13:00,57.4,44.1,30.11,WNW,293,8.0,-999.0,61,0.00,,,0.08,Wunderground v.1.15,2013-03-06 23:13:00,
2013-03-06 18:18:00,57.1,44.2,30.11,WNW,293,9.0,-999.0,62,0.00,,,0.08,Wunderground v.1.15,2013-03-06 23:18:00,
2013-03-06 18:23:00,57.1,44.2,30.11,WNW,293,9.0,-999.0,62,0.00,,,0.08,Wunderground v.1.15,2013-03-06 23:23:00,
2013-03-06 18:28:00,56.9,43.6,30.11,WNW,293,9.0,-999.0,61,0.00,,,0.08,Wunderground v.1.15,2013-03-06 23:28:00,
2013-03-06 18:33:00,56.9,43.6,30.11,WNW,293,9.0,-999.0,61,0.00,,,0.08,Wunderground v.1.15,2013-03-06 23:33:00,
2013-03-06 18:38:00,56.9,44.0,30.11,WNW,293,7.0,-999.0,62,0.00,,,0.08,Wunderground v.1.15,2013-03-06 23:38:00,
2013-03-06 18:43:00,56.9,44.0,30.11,WNW,293,7.0,-999.0,62,0.00,,,0.08,Wunderground v.1.15,2013-03-06 23:43:00,
2013-03-06 18:48:00,56.9,44.0,30.11,WNW,293,6.0,-999.0,62,0.00,,,0.08,Wunderground v.1.15,2013-03-06 23:48:00,
2013-03-06 18:53:00,56.9,44.0,30.11,WNW,293,6.0,-999.0,62,0.00,,,0.08,Wunderground v.1.15,2013-03-06 23:53:00,
2013-03-06 18:58:00,56.9,43.6,30.12,WNW,293,8.0,-999.0,61,0.00,,,0.08,Wunderground v.1.15,2013-03-06 23:58:00,
2013-03-06 19:03:00,56.9,43.6,30.12,WNW,293,8.0,-999.0,61,0.00,,,0.08,Wunderground v.1.15,2013-03-07 00:03:00,
2013-03-06 19:08:00,57.1,44.2,30.12,WNW,293,8.0,-999.0,62,0.00,,,0.08,Wunderground v.1.15,2013-03-07 00:08:00,
2013-03-06 19:13:00,57.1,44.2,30.12,WNW,293,8.0,-999.0,62,0.00,,,0.08,Wunderground v.1.15,2013-03-07 00:13:00,
2013-03-06 19:18:00,57.1,44.2,30.12,WNW,293,7.0,-999.0,62,0.00,,,0.08,Wunderground v.1.15,2013-03-07 00:18:00,
2013-03-06 19:23:00,57.1,44.2,30.12,WNW,293,7.0,-999.0,62,0.00,,,0.08,Wunderground v.1.15,2013-03-07 00:23:00,
2013-03-06 19:28:00,57.2,44.3,30.12,WNW,293,8.0,-999.0,62,0.00,,,0.08,Wunderground v.1.15,2013-03-07 00:28:00,
2013-03-06 19:33:00,57.2,44.3,30.12,WNW,293,8.0,-999.0,62,0.00,,,0.08,Wunderground v.1.15,2013-03-07 00:33:00,
2013-03-06 19:38:00,57.1,44.6,30.12,WNW,293,7.0,-999.0,63,0.00,,,0.08,Wunderground v.1.15,2013-03-07 00:38:00,
2013-03-06 19:43:00,57.1,44.6,30.12,WNW,293,7.0,-999.0,63,0.00,,,0.08,Wunderground v.1.15,2013-03-07 00:43:00,
2013-03-06 19:48:00,57.2,45.1,30.12,WNW,293,7.0,-999.0,64,0.00,,,0.08,Wunderground v.1.15,2013-03-07 00:48:00,
2013-03-06 19:53:00,57.2,45.1,30.12,WNW,293,7.0,-999.0,64,0.00,,,0.08,Wunderground v.1.15,2013-03-07 00:53:00,
2013-03-06 19:58:00,57.1,45.8,30.12,WNW,293,7.0,-999.0,66,0.00,,,0.08,Wunderground v.1.15,2013-03-07 00:58:00,
2013-03-06 20:03:00,57.1,45.8,30.12,WNW,293,7.0,-999.0,66,0.00,,,0.08,Wunderground v.1.15,2013-03-07 01:03:00,
2013-03-06 20:08:00,57.1,46.2,30.12,WNW,293,8.0,-999.0,67,0.00,,,0.08,Wunderground v.1.15,2013-03-07 01:08:00,
2013-03-06 20:13:00,57.1,46.2,30.12,WNW,293,8.0,-999.0,67,0.00,,,0.08,Wunderground v.1.15,2013-03-07 01:13:00,
2013-03-06 20:18:00,57.1,47.0,30.13,WNW,293,8.0,-999.0,69,0.00,,,0.08,Wunderground v.1.15,2013-03-07 01:18:00,
2013-03-06 20:23:00,57.1,47.0,30.13,WNW,293,8.0,-999.0,69,0.00,,,0.08,Wunderground v.1.15,2013-03-07 01:23:00,
2013-03-06 20:28:00,57.0,47.3,30.13,NW,315,7.0,-999.0,70,0.00,,,0.08,Wunderground v.1.15,2013-03-07 01:28:00,
2013-03-06 20:33:00,57.0,47.3,30.13,NW,315,7.0,-999.0,70,0.00,,,0.08,Wunderground v.1.15,2013-03-07 01:33:00,
2013-03-06 20:38:00,56.8,47.5,30.13,NW,315,7.0,-999.0,71,0.00,,,0.08,Wunderground v.1.15,2013-03-07 01:38:00,
2013-03-06 20:43:00,56.8,47.5,30.13,NW,315,7.0,-999.0,71,0.00,,,0.08,Wunderground v.1.15,2013-03-07 01:43:00,
2013-03-06 20:48:00,56.7,47.4,30.13,WNW,293,7.0,-999.0,71,0.00,,,0.08,Wunderground v.1.15,2013-03-07 01:48:00,
2013-03-06 20:53:00,56.7,47.4,30.13,WNW,293,7.0,-999.0,71,0.00,,,0.08,Wunderground v.1.15,2013-03-07 01:53:00,
2013-03-06 20:58:00,56.6,46.9,30.14,WNW,293,7.0,-999.0,70,0.00,,,0.08,Wunderground v.1.15,2013-03-07 01:58:00,
2013-03-06 21:03:00,56.6,46.9,30.14,WNW,293,7.0,-999.0,70,0.00,,,0.08,Wunderground v.1.15,2013-03-07 02:03:00,
2013-03-06 21:08:00,56.5,47.2,30.14,WNW,293,8.0,-999.0,71,0.00,,,0.08,Wunderground v.1.15,2013-03-07 02:08:00,
2013-03-06 21:13:00,56.5,47.2,30.14,WNW,293,8.0,-999.0,71,0.00,,,0.08,Wunderground v.1.15,2013-03-07 02:13:00,
2013-03-06 21:18:00,56.4,46.7,30.15,NW,315,8.0,-999.0,70,0.00,,,0.08,Wunderground v.1.15,2013-03-07 02:18:00,
2013-03-06 21:23:00,56.4,46.7,30.15,NW,315,8.0,-999.0,70,0.00,,,0.08,Wunderground v.1.15,2013-03-07 02:23:00,
2013-03-06 21:28:00,56.3,46.6,30.15,NW,315,8.0,-999.0,70,0.00,,,0.08,Wunderground v.1.15,2013-03-07 02:28:00,
2013-03-06 21:33:00,56.3,46.6,30.15,NW,315,8.0,-999.0,70,0.00,,,0.08,Wunderground v.1.15,2013-03-07 02:33:00,
2013-03-06 21:38:00,56.2,46.5,30.15,NW,315,6.0,-999.0,70,0.00,,,0.08,Wunderground v.1.15,2013-03-07 02:38:00,
2013-03-06 21:43:00,56.2,46.5,30.15,NW,315,6.0,-999.0,70,0.00,,,0.08,Wunderground v.1.15,2013-03-07 02:43:00,
2013-03-06 21:48:00,56.1,46.4,30.16,NW,315,6.0,-999.0,70,0.00,,,0.08,Wunderground v.1.15,2013-03-07 02:48:00,
2013-03-06 21:53:00,56.1,46.4,30.16,NW,315,6.0,-999.0,70,0.00,,,0.08,Wunderground v.1.15,2013-03-07 02:53:00,
2013-03-06 21:58:00,56.1,46.4,30.16,NW,315,6.0,-999.0,70,0.00,,,0.08,Wunderground v.1.15,2013-03-07 02:58:00,
2013-03-06 22:03:00,56.1,46.4,30.16,NW,315,6.0,-999.0,70,0.00,,,0.08,Wunderground v.1.15,2013-03-07 03:03:00,
2013-03-06 22:08:00,56.0,46.0,30.16,NW,315,6.0,-999.0,69,0.00,,,0.08,Wunderground v.1.15,2013-03-07 03:08:00,
2013-03-06 22:13:00,56.0,46.0,30.16,NW,315,6.0,-999.0,69,0.00,,,0.08,Wunderground v.1.15,2013-03-07 03:13:00,
2013-03-06 22:18:00,56.0,46.0,30.17,NNW,338,8.0,-999.0,69,0.00,,,0.08,Wunderground v.1.15,2013-03-07 03:18:00,
2013-03-06 22:23:00,56.0,46.0,30.17,NNW,338,8.0,-999.0,69,0.00,,,0.08,Wunderground v.1.15,2013-03-07 03:23:00,
2013-03-06 22:28:00,56.1,46.1,30.17,NNW,338,8.0,-999.0,69,0.00,,,0.08,Wunderground v.1.15,2013-03-07 03:28:00,
2013-03-06 22:33:00,56.1,46.1,30.17,NNW,338,8.0,-999.0,69,0.00,,,0.08,Wunderground v.1.15,2013-03-07 03:33:00,
2013-03-06 22:38:00,56.1,45.7,30.17,NNW,338,8.0,-999.0,68,0.00,,,0.08,Wunderground v.1.15,2013-03-07 03:38:00,
2013-03-06 22:43:00,56.1,45.7,30.17,NNW,338,8.0,-999.0,68,0.00,,,0.08,Wunderground v.1.15,2013-03-07 03:43:00,
2013-03-06 22:48:00,55.9,45.9,30.17,NW,315,6.0,-999.0,69,0.00,,,0.08,Wunderground v.1.15,2013-03-07 03:48:00,
2013-03-06 22:53:00,55.9,45.9,30.17,NW,315,6.0,-999.0,69,0.00,,,0.08,Wunderground v.1.15,2013-03-07 03:53:00,
2013-03-06 22:58:00,55.7,45.3,30.17,NNW,338,5.0,-999.0,68,0.00,,,0.08,Wunderground v.1.15,2013-03-07 03:58:00,
2013-03-06 23:03:00,55.7,45.3,30.17,NNW,338,5.0,-999.0,68,0.00,,,0.08,Wunderground v.1.15,2013-03-07 04:03:00,
2013-03-06 23:08:00,55.6,45.2,30.17,NNW,338,6.0,-999.0,68,0.00,,,0.08,Wunderground v.1.15,2013-03-07 04:08:00,
2013-03-06 23:13:00,55.6,45.2,30.17,NNW,338,6.0,-999.0,68,0.00,,,0.08,Wunderground v.1.15,2013-03-07 04:13:00,
2013-03-06 23:18:00,55.3,44.9,30.17,NNW,338,4.0,-999.0,68,0.00,,,0.08,Wunderground v.1.15,2013-03-07 04:18:00,
2013-03-06 23:23:00,55.3,44.9,30.17,NNW,338,4.0,-999.0,68,0.00,,,0.08,Wunderground v.1.15,2013-03-07 04:23:00,
2013-03-06 23:28:00,55.0,45.0,30.17,NNW,338,5.0,-999.0,69,0.00,,,0.08,Wunderground v.1.15,2013-03-07 04:28:00,
2013-03-06 23:33:00,55.0,45.0,30.17,NNW,338,5.0,-999.0,69,0.00,,,0.08,Wunderground v.1.15,2013-03-07 04:33:00,
2013-03-06 23:38:00,54.8,45.2,30.17,NNW,338,5.0,-999.0,70,0.00,,,0.08,Wunderground v.1.15,2013-03-07 04:38:00,
2013-03-06 23:43:00,54.8,45.2,30.17,NNW,338,5.0,-999.0,70,0.00,,,0.08,Wunderground v.1.15,2013-03-07 04:43:00,
2013-03-06 23:48:00,55.0,45.4,30.17,NNW,338,5.0,-999.0,70,0.00,,,0.08,Wunderground v.1.15,2013-03-07 04:48:00,
2013-03-06 23:53:00,55.0,45.4,30.17,NNW,338,5.0,-999.0,70,0.00,,,0.08,Wunderground v.1.15,2013-03-07 04:53:00,
2013-03-06 23:58:00,55.0,45.0,30.17,NNW,338,5.0,-999.0,69,0.00,,,0.08,Wunderground v.1.15,2013-03-07 04:58:00,